ニート-ロニオス彗星

P/2003 SQ215 ( NEAT-LONEOS )

English version
Home page
Updated on February 21, 2004

---------------------------------------------------------------------

・ プロフィール

発見日 2003年9月24日, 27日
発見光度 18.9等, 18.7等
発見者 Near-Earth-Asteroid Tracking Team (Jet Propulsion Laboratory), Lowell Observatory Near-Earth Object Search

・ 軌道要素

Epoch 2004 Mar. 16.0 TT = JDT 2453080.5
T 2004 Mar. 24.22929 TT                                 MPC
q   2.3042255            (2000.0)            P               Q
n   0.07635464     Peri.  137.30288     +0.81661704     -0.56940714
a   5.5027413      Node   257.64057     +0.50005857     +0.77965414
e   0.5812586      Incl.    5.54594     +0.28823262     +0.26060492
P  12.91
>From 43 observations 2003 Sept. 18-2004 Jan. 19, mean residual 0".65.

・ 星図

・ 光度変化

        m1 = 12.5 + 5 logΔ + 10.0 log r

---------------------------------------------------------------------

軌道要素はM.P.E.C. 2004-B35に掲載されたものです。
星図は StellaNavigator Ver.2.0 for Windows (アストロアーツ 編著 / アスキー出版局刊) で作成したものです。
光度グラフはComet for Windowsで作成したものです。

---------------------------------------------------------------------

Copyright(C) Seiichi Yoshida (comet@aerith.net). All rights reserved.